Chatuge Observed Data For Previous 48 Hours

Caption
Day and Hour Reservoir Elevation (behind dam)* Tailwater Elevation (below dam)* Average Hourly Discharge*
1/16/2019 2 AM EST 1,920.44 1,805.57 1,104
1/16/2019 3 AM EST 1,920.43 1,805.51 1,102
1/16/2019 4 AM EST 1,920.43 1,805.47 1,105
1/16/2019 5 AM EST 1,920.42 1,805.43 1,105
1/16/2019 6 AM EST 1,920.42 1,805.52 1,102
1/16/2019 7 AM EST 1,920.41 1,805.46 1,104
1/16/2019 8 AM EST 1,920.40 1,805.53 1,102
1/16/2019 9 AM EST 1,920.40 1,805.57 1,104
1/16/2019 10 AM EST 1,920.39 1,805.58 1,105
1/16/2019 11 AM EST 1,920.39 1,805.54 1,106
1/16/2019 12 PM EST 1,920.38 1,805.54 1,104
1/16/2019 1 PM EST 1,920.37 1,805.54 1,116
1/16/2019 2 PM EST 1,920.37 1,805.58 1,115
1/16/2019 3 PM EST 1,920.36 1,805.54 1,119
1/16/2019 4 PM EST 1,920.35 1,805.57 1,117
1/16/2019 5 PM EST 1,920.35 1,805.54 1,118
1/16/2019 6 PM EST 1,920.34 1,805.61 1,118
1/16/2019 7 PM EST 1,920.34 1,805.55 1,121
1/16/2019 8 PM EST 1,920.33 1,805.54 1,119
1/16/2019 9 PM EST 1,920.33 1,805.54 1,118
1/16/2019 10 PM EST 1,920.32 1,805.53 1,113
1/16/2019 11 PM EST 1,920.32 1,805.52 1,115
1/17/2019 12 AM EST 1,920.31 1,805.50 1,114
1/17/2019 1 AM EST 1,920.31 1,805.45 1,117
1/17/2019 2 AM EST 1,920.30 1,805.55 1,116
1/17/2019 3 AM EST 1,920.30 1,805.54 1,114
1/17/2019 4 AM EST 1,920.29 1,805.58 1,116
1/17/2019 5 AM EST 1,920.28 1,805.58 1,116
1/17/2019 6 AM EST 1,920.28 1,805.57 1,104
1/17/2019 7 AM EST 1,920.27 1,805.55 1,102
1/17/2019 8 AM EST 1,920.27 1,805.49 1,106
1/17/2019 9 AM EST 1,920.26 1,805.58 1,105
1/17/2019 10 AM EST 1,920.25 1,805.51 1,109
1/17/2019 11 AM EST 1,920.24 1,805.56 1,103
1/17/2019 12 PM EST 1,920.24 1,805.53 1,102
1/17/2019 1 PM EST 1,920.23 1,805.46 1,102
1/17/2019 2 PM EST 1,920.23 1,805.51 1,101
1/17/2019 3 PM EST 1,920.23 1,805.50 1,098
1/17/2019 4 PM EST 1,920.23 1,805.58 1,101
1/17/2019 5 PM EST 1,920.23 1,805.44 1,106
1/17/2019 6 PM EST 1,920.23 1,805.51 1,107
1/17/2019 7 PM EST 1,920.23 1,805.55 1,105
1/17/2019 8 PM EST 1,920.23 1,805.49 1,102
1/17/2019 9 PM EST 1,920.22 1,805.51 1,105
1/17/2019 10 PM EST 1,920.22 1,805.46 1,103
1/17/2019 11 PM EST 1,920.22 1,805.43 1,102
1/18/2019 12 AM EST 1,920.21 1,805.51 1,101
1/18/2019 1 AM EST 1,920.21 1,805.56 1,104

Elevations are in feet above sea level. Discharges are in cubic feet per second and are reported at the end of the hour.